Погода в Симкине

Россия / Республика Мордовия     54°15′15″N   46°10′19″E
темп.,
°C
ветер,
м/с
пор.,
м/с
влажн.,
%
обл.,
%
осадки,
мм/ч
давл.,
гПа
погр.,
м
19 сентября, вс
вс1900:00+2св1178100 0.0 102510
03:00+1всв1178100 0.0 102510
06:00+1всв117799 0.0 102611
09:00+6всв2355100 0.0 1026518
12:00+10всв2244100 0.0 10261130
15:00+11всв2141100 0.0 10251244
18:00+7всв3456100 0.0 102558
21:00+5в2357100 0.0 102548
20 сентября, пн
пн2000:00+5в2756100 0.0 1025181
03:00+5в3959100 0.0 1024227
06:00+5вюв31060100 0.0 1025356
09:00+8вюв5754100 0.0 1025618
12:00+9вюв5755100 0.1 1024961
15:00+10вюв5848100 0.1 10231205
18:00+9вюв4848100 0.0 1023447
21:00+9вюв5954100 0.0 1023920
21 сентября, вт
вт2100:00+8в41056100 0.0 1023706
03:00+6в51282100 0.4 1022502
06:00+6в51278100 0.1 1021505
09:00+6в51379100 0.3 1021641
12:00+7вюв61373100 0.1 1020642
15:00+7вюв61271100 0.1 1020658
18:00+7вюв5116897 0.0 1019586
21:00+5в41281100 0.0 1019385
22 сентября, ср
ср2200:00+7в51272100 0.0 1017408
03:00+8в41078100 0.1 1016386
06:00+7вюв4980100 0.3 1016371
09:00+7в3993100 2.9 1017342
12:00+8всв3792100 1.6 1017314
15:00+9всв2794100 3.5 1017308
18:00+10в3798100 0.9 1017326
21:00+10вюв3998100 2.6 1017454
23 сентября, чт
чт2300:00+10вюв3894100 0.4 1018311
03:00+9вюв3895100 0.6 1018284
06:00+9вюв3109099 0.0 1018359
09:00+9вюв3894100 0.5 1019332
12:00+11юв41193100 0.6 1019558
15:00+12ююв51187100 0.6 1019754
18:00+11юв51293100 0.9 1020640
21:00+9юв41092100 1.4 1020554